Location: Bakov nad Jizerou
(50.4784°N, 14.9394°E)
Time: 08:33:33
(UTC+00:00)

IRIDIUM 33 DEB - Visible Passes

Search period start: 29 January 2022 00:00
Search period end: 08 February 2022 00:00
Orbit: 608 x 646 km, 86.4° (Epoch: 28 January)

Date Brightness Start Highest point End Pass type
(mag) Time Alt. Az. Time Alt. Az. Time Alt. Az.
29 Jan ? 05:56:05 10° SE 05:59:39 23° E 06:03:15 10° NNE visible
29 Jan ? 17:37:46 10° NNE 17:40:43 30° NE 17:40:43 30° NE visible
29 Jan ? 19:15:33 10° NNW 19:18:08 24° NW 19:18:08 24° NW visible
30 Jan ? 17:57:21 10° N 18:01:46 60° E 18:02:36 50° SE visible
30 Jan ? 19:36:02 10° NW 19:38:52 17° WNW 19:40:07 15° W visible
31 Jan ? 16:41:00 10° NE 16:43:20 14° ENE 16:45:40 10° E visible
31 Jan ? 18:17:06 10° N 18:21:32 77° W 18:25:54 10° S visible
01 Feb ? 05:19:00 10° ESE 05:21:40 15° ENE 05:24:18 10° NE visible
01 Feb ? 16:59:51 10° NNE 17:03:23 23° ENE 17:06:52 10° SE visible
01 Feb ? 18:36:59 10° NNW 18:41:11 43° W 18:45:20 10° SSW visible
02 Feb ? 05:37:24 10° SE 05:41:06 25° E 05:44:48 10° NNE visible
02 Feb ? 17:19:09 10° N 17:23:18 38° E 17:27:22 10° SSE visible
02 Feb ? 18:57:04 10° NNW 19:00:43 25° W 19:04:18 10° SW visible
03 Feb ? 05:56:22 10° SSE 06:00:37 42° E 06:04:53 10° NNE visible
03 Feb ? 17:38:40 10° N 17:43:05 66° E 17:47:25 10° SSE visible
03 Feb ? 19:17:32 10° NW 19:20:06 15° WNW 19:22:39 10° WSW visible
04 Feb ? 17:58:19 10° N 18:02:44 70° W 18:07:03 10° S visible
05 Feb ? 04:59:55 10° ESE 05:02:46 17° ENE 05:05:36 10° NE visible
05 Feb ? 16:40:53 10° NNE 16:44:31 24° ENE 16:48:05 10° SE visible
05 Feb ? 18:18:08 10° NNW 18:22:14 39° W 18:26:18 10° SSW visible
06 Feb ? 05:18:19 10° SE 05:22:07 27° E 05:25:54 10° NNE visible
06 Feb ? 17:00:07 10° N 17:04:18 41° E 17:08:24 10° SSE visible
06 Feb ? 18:38:09 10° NNW 18:41:38 23° W 18:45:06 10° SW visible
07 Feb ? 05:37:14 10° SSE 05:41:32 46° E 05:45:50 10° NNE visible
07 Feb ? 17:19:32 10° N 17:23:57 72° E 17:28:17 10° S visible
07 Feb ? 18:58:38 10° NW 19:00:55 14° WNW 19:03:11 10° WSW visible
